TimeCST,TemperatureF,Dew PointF,Humidity,Sea Level PressureIn,VisibilityMPH,Wind Direction,Wind SpeedMPH,Gust SpeedMPH,PrecipitationIn,Events,Conditions,WindDirDegrees,DateUTC
12:52 AM,41.0,28.0,60,30.12,10.0,South,4.6,-,N/A,,Clear,190,2013-01-21 06:52:00
1:52 AM,39.9,28.0,63,30.13,10.0,Calm,Calm,-,N/A,,Clear,0,2013-01-21 07:52:00
2:52 AM,33.1,27.0,78,30.15,10.0,South,4.6,-,N/A,,Clear,190,2013-01-21 08:52:00
3:52 AM,35.1,28.0,76,30.17,10.0,Calm,Calm,-,N/A,,Clear,0,2013-01-21 09:52:00
4:52 AM,37.9,30.9,76,30.18,10.0,North,6.9,-,N/A,,Clear,10,2013-01-21 10:52:00
5:52 AM,35.1,30.9,85,30.21,10.0,North,5.8,-,N/A,,Clear,350,2013-01-21 11:52:00
6:52 AM,33.1,30.0,89,30.25,10.0,North,5.8,-,N/A,,Clear,350,2013-01-21 12:52:00
7:52 AM,32.0,28.9,88,30.28,10.0,NNW,9.2,-,N/A,,Clear,340,2013-01-21 13:52:00
8:52 AM,35.1,26.1,70,30.31,10.0,North,13.8,-,N/A,,Clear,360,2013-01-21 14:52:00
9:52 AM,35.1,24.1,64,30.33,10.0,North,15.0,-,N/A,,Clear,360,2013-01-21 15:52:00
10:52 AM,37.9,23.0,55,30.34,10.0,North,11.5,-,N/A,,Clear,10,2013-01-21 16:52:00
11:52 AM,41.0,23.0,49,30.32,10.0,North,9.2,-,N/A,,Clear,10,2013-01-21 17:52:00
12:52 PM,43.0,23.0,45,30.31,10.0,North,10.4,-,N/A,,Clear,350,2013-01-21 18:52:00
1:52 PM,46.0,23.0,40,30.27,10.0,North,8.1,-,N/A,,Clear,10,2013-01-21 19:52:00
2:52 PM,48.0,24.1,39,30.25,10.0,NW,8.1,-,N/A,,Clear,320,2013-01-21 20:52:00
3:52 PM,48.0,24.1,39,30.24,10.0,Variable,5.8,-,N/A,,Clear,0,2013-01-21 21:52:00
4:52 PM,48.9,24.1,38,30.24,10.0,NNW,4.6,-,N/A,,Clear,340,2013-01-21 22:52:00
5:52 PM,46.0,24.1,42,30.24,10.0,NNW,4.6,-,N/A,,Clear,330,2013-01-21 23:52:00
6:52 PM,45.0,23.0,42,30.25,10.0,NNE,4.6,-,N/A,,Clear,20,2013-01-22 00:52:00
7:52 PM,42.1,24.1,49,30.25,10.0,ENE,3.5,-,N/A,,Clear,70,2013-01-22 01:52:00
8:52 PM,39.9,23.0,51,30.25,10.0,Calm,Calm,-,N/A,,Clear,0,2013-01-22 02:52:00
9:52 PM,39.9,21.9,49,30.25,10.0,NE,3.5,-,N/A,,Clear,40,2013-01-22 03:52:00
10:52 PM,35.1,23.0,61,30.26,10.0,Calm,Calm,-,N/A,,Clear,0,2013-01-22 04:52:00
11:52 PM,36.0,24.1,62,30.27,10.0,Calm,Calm,-,N/A,,Mostly Cloudy,0,2013-01-22 05:52:00